Simultaneous Nadir Overpasses (SNOs) Predictions

Prediction of SNOs between AQUA and NOAA-19 Satellite Orbit:

Table of predicted SNOs for the next 14.0 days since TLE Epoch: 4/7/2012
Index Date (AQUA) Time (AQUA) AQUA Lat,Lon Date (NOAA-19) Time (NOAA-19) NOAA-19 Lat,Lon Distance(km) Time Diff (sec)
1 04/08/2012 18:19:41 53.38, 120.18 04/08/2012 18:19:36 53.38, 120.16 0.92 5
2 04/08/2012 19:03:22 -73.12, -53.61 04/08/2012 19:04:36 -72.95, -52.76 33.40 74
3 04/10/2012 23:03:08 56.41, 50.67 04/10/2012 23:03:28 56.40, 50.65 0.72 20
4 04/13/2012 03:00:33 -47.53, 167.85 04/13/2012 02:59:44 -47.53, 167.84 0.46 49
5 04/13/2012 03:46:35 59.39, -18.63 04/13/2012 03:47:20 59.39, -18.61 0.92 45
6 04/15/2012 07:43:48 -51.23, 98.32 04/15/2012 07:43:24 -51.23, 98.31 0.77 24
7 04/15/2012 08:30:21
